Starlink 2494

operational
NORAD ID: 48487 Int'l Des: 2021-040 Owner: SPXS Country: US Constellation: starlink
LEOCIRCULARSTARLINK_TYPE

About Starlink 2494

Description loading...

Live Position

Loading 3D Globe...

Upcoming Passes

Altitude History

Altitude vs Time

uPlot chart will show altitude changes over time

Two-Line Element Set

1 48487U 21040BM 25308.63778344 .00003042 00000-0 22286-3 0 9990
2 48487 53.0553 42.9964 0001559 88.1074 272.0093 15.06428626247507
Epoch: Nov 4, 2025 • Age: 17 hours

Current Status

Altitude 550.2 km
Velocity 7.59 km/s
Sub-Earth Point -10.60°S, 61.85°E
Launch Date May 9, 2021
Age 4.4 years
Type internet

Technical Details

Classification Payload
Mass 260.00 kg
Dry Mass 248.00 kg
Total Mass 260.00 kg
Length 0.20 m
Diameter 2.80 m
Span 9.00 m
Shape Box + pan
Manufacturer SPXS
Bus Type Starlink
Phase Status In Orbit
Owner/State SPXS/US

Large Constellations

Loading constellations...